Location: Chacón
(10.5789°N, 66.9317°W)
Time: 04:32:38
(UTC+00:00)

Sakura Rocket - Pass Details

Date: 14 August 2024
Orbit: 475 x 1710 km, 28.7° (Epoch: 16 September)

Event Time Altitude Azimuth Distance (km) Brightness Sun altitude
Exits shadow 06:47:39 16° 52° (NE) 2,371 6.4 -48.3°
Drops below altitude 10° 06:49:59 10° 68° (ENE) 2,961 7.0 -47.9°
Sets 06:54:04 0° 83° (E) 4,189 7.9 -47.0°
